sat.trackr.live / text

‹ back to catalog

STARLINK-3973

NORAD 52645 · 2022-052AZ

PAYLOAD ACTIVE UNKNOWN

§ Identity

Operator
Country
US
Launch date
2022-05-14
Launch site
AFETR
Launch vehicle
Mass (kg)
RCS (m²)

Purposes: comms

External: N2YO · Heavens-Above · Gunter

§ Orbital elements

Epoch: 2026-09-19T05:43:57.289728Z

Period
94.01 min
Inclination
53.1594°
Eccentricity
0.0001166
Mean motion
15.31704741 rev/d
Perigee alt
469.9 km
Apogee alt
471.5 km
Semi-major
6,848.9 km
B*
3.2480e-5
RAAN
96.6756°
Arg perigee
90.8105°
Mean anomaly
269.3030°
Rev number
24,053

§ Raw data

STARLINK-39731 52645U 22052AZ  26262.23885752  .00000643  00000+0  32480-4 0  99942 52645  53.1594  96.6756 0001166  90.8105 269.3030 15.31704741240537

JSON: /api/v1/satellites/52645 · /tle

For live sub-satellite position, see the globe view (requires WebGL).

§ Visibility from observer

Set your observer location to see the next 7 days of passes ≥ 10°. The values pass through the URL so the page stays shareable.

No JS? Fill the form by hand. The geolocation button needs JavaScript.